Probability
19 15 12 12 12 11 10 8 5 4 5 6 6 7 7 6 5 3 2 1 1 2 3 4 5 6 6 6 6 5 4 4 2 1 1 3 3 2 1 0 0 0 0
17 13 12 13 14 13 11 10 8 6 5 5 6 6 6 6 5 4 2 1 1 2 4 5 6 6 6 6 6 6 6 5 3 1 2 3 3 3 2 1 1 0 0
16 13 12 13 14 14 13 12 11 8 6 5 5 5 5 5 6 5 5 4 4 4 5 6 7 7 7 7 7 7 6 6 5 4 3 3 4 3 3 3 2 1 0
19 16 13 12 12 12 12 12 11 9 7 6 6 5 5 5 5 6 7 7 6 7 7 7 8 8 8 7 8 8 7 7 7 6 4 4 4 4 3 3 2 1 0
22 19 14 12 11 11 11 10 9 8 8 6 6 6 6 6 6 6 6 7 7 8 8 8 8 8 7 7 7 7 7 7 8 7 5 4 4 3 3 3 2 1 0
24 20 15 13 12 11 10 8 8 7 6 5 4 5 6 6 6 4 4 6 7 8 8 8 8 7 7 5 4 4 5 5 5 4 3 3 3 3 3 3 2 1 0
23 20 18 16 15 13 11 9 8 7 6 4 4 5 6 6 4 2 3 5 6 7 8 8 8 7 7 4 2 2 4 4 3 3 3 2 3 3 3 3 1 0 0
19 19 18 17 16 15 13 11 10 9 8 7 7 8 7 6 3 1 1 3 4 6 7 8 9 9 7 5 3 4 5 4 3 2 2 2 3 3 3 2 1 0 0
15 14 13 14 15 15 13 12 10 10 11 11 11 10 8 6 3 1 0 1 3 4 5 7 8 8 6 4 4 5 5 4 1 0 1 1 2 2 2 1 0 0 0
12 10 9 9 11 11 10 10 9 10 11 12 12 10 8 6 3 1 0 1 2 3 4 4 5 5 3 2 3 5 4 2 1 0 0 0 1 1 1 0 0 0 0
10 9 7 7 8 8 7 7 8 8 10 10 10 9 7 6 4 1 0 1 2 2 3 3 3 2 1 0 2 3 3 1 0 0 0 0 0 0 0 0 0 0 0
10 9 7 6 6 6 6 5 6 7 8 8 8 7 6 6 4 1 0 1 1 2 2 2 2 1 0 0 0 1 1 0 0 0 0 0 0 0 0 0 0 0 0
10 9 7 6 6 6 6 4 5 6 7 7 7 7 6 6 4 1 0 0 1 1 1 1 1 0 0 0 0 0 0 0 0 0 0 0 0 0 0 0 0 0 0
9 8 7 6 6 6 6 4 4 5 5 6 6 6 7 6 4 2 1 0 0 0 0 0 0 0 0 0 0 0 0 0 0 0 0 0 0 0 0 0 0 0 0
9 8 7 6 6 6 6 5 3 3 3 4 5 5 6 6 4 2 1 0 0 0 0 0 0 0 0 0 0 0 0 0 0 0 0 0 0 0 0 0 0 0 0
8 7 6 6 6 6 5 4 2 1 1 1 2 2 3 3 2 1 1 0 0 0 0 0 0 0 0 0 0 0 0 0 0 0 0 0 0 0 0 0 0 0 0
6 6 6 6 6 6 4 3 1 1 0 0 0 0 1 1 0 0 0 0 0 0 0 0 0 0 0 0 0 0 0 0 0 0 0 0 0 0 0 0 0 0 0
5 5 6 6 6 6 4 3 3 2 1 0 0 0 0 0 0 0 0 0 0 0 0 0 0 0 0 0 0 0 0 0 0 0 0 0 0 0 0 0 0 0 0
4 4 4 5 6 6 5 4 3 3 2 1 0 0 0 0 0 0 0 0 0 0 0 0 0 0 0 0 0 0 0 0 0 0 0 0 0 0 0 0 0 0 0
4 3 4 4 5 6 6 4 3 3 2 1 0 0 0 0 0 0 0 0 0 0 0 0 0 0 0 0 0 0 0 0 0 0 0 0 0 0 0 0 0 0 0
3 3 3 3 3 4 4 4 3 2 1 1 0 0 0 0 0 0 0 0 0 0 0 0 0 0 0 0 0 0 0 0 0 1 1 0 0 0 0 0 0 0 0
1 1 1 1 1 1 2 2 2 1 0 0 0 0 0 0 0 0 0 0 0 0 0 0 0 0 0 0 0 0 0 0 0 1 2 1 1 0 0 0 0 0 0
1 1 0 0 0 0 0 1 1 0 0 0 0 0 0 0 0 0 0 0 0 0 0 0 0 0 0 0 0 0 0 0 0 1 2 2 2 1 0 0 0 0 0
2 2 1 1 0 0 0 0 0 0 0 0 0 0 0 0 0 0 0 0 0 0 0 0 0 0 0 0 0 0 0 0 0 0 1 1 1 1 1 1 0 0 0
1 2 2 1 1 0 0 0 0 0 0 0 0 0 0 0 0 0 0 0 0 0 0 0 0 0 0 0 0 0 0 0 0 0 0 0 0 1 1 1 0 0 0
0 1 1 1 1 1 1 0 0 0 0 0 0 0 0 0 0 0 0 0 0 0 0 0 0 0 0 0 0 0 0 0 0 0 0 0 0 0 1 1 0 0 0
Wind_Speed
4 4 4 3 3 3 3 3 2 2 2 2 2 2 2 3 2 2 2 2 2 2 2 2 2 2 2 1 1 2 2 2 2 3 1 1 1 2 2 2 2 2 3
4 4 4 3 3 3 2 3 3 3 2 2 2 2 2 2 2 3 3 3 3 2 2 2 2 2 2 2 2 2 2 2 3 3 2 1 2 3 2 2 2 2 3
4 4 4 3 3 3 3 3 3 3 2 2 2 2 2 2 2 3 3 3 3 3 3 3 3 2 2 2 2 2 2 2 2 2 2 2 2 1 1 2 2 2 3
4 4 4 3 3 3 3 3 3 3 3 2 3 3 3 3 3 2 3 3 3 3 3 3 3 3 4 3 3 3 3 2 2 2 2 2 2 2 1 1 2 2 2
4 4 4 3 3 2 2 2 2 2 2 2 2 2 2 2 2 3 3 3 3 3 3 3 3 3 3 3 3 3 3 3 2 2 2 1 2 1 2 2 2 2 2
4 4 4 3 3 2 2 2 2 2 2 1 2 2 2 2 3 3 3 3 2 3 3 3 3 2 3 4 4 4 5 4 4 3 3 4 4 4 3 2 2 1 3
3 3 3 4 4 3 3 2 2 2 2 2 2 2 2 3 3 3 3 2 2 3 3 2 2 2 2 1 3 4 4 6 7 5 5 5 5 5 4 3 3 4 4
1 2 2 3 3 2 2 2 2 2 2 2 2 2 2 2 2 2 2 2 2 2 2 2 2 2 2 2 2 2 3 3 5 5 5 6 6 5 5 6 5 4 3
1 1 2 2 3 2 2 3 2 2 2 2 2 2 2 2 2 3 2 1 1 2 2 1 2 2 3 3 2 2 3 3 4 5 6 7 7 7 6 3 2 2 3
2 2 2 2 3 3 3 2 1 1 1 1 1 1 2 2 3 3 3 1 1 1 1 1 2 3 3 3 3 3 3 4 3 3 4 5 5 5 6 6 5 4 3
2 2 1 1 2 2 2 1 2 1 1 1 1 1 1 2 3 3 3 2 2 1 1 2 2 4 4 4 3 3 5 5 3 3 3 3 3 3 3 4 5 6 5
2 2 1 1 1 1 1 1 1 2 1 1 1 1 1 2 2 3 3 3 2 2 2 2 3 4 4 4 4 5 6 4 2 2 2 3 3 3 4 4 5 6 6
2 2 2 1 0 1 1 1 1 1 1 1 1 2 2 1 1 2 3 3 2 2 2 3 4 5 4 3 5 5 3 2 2 2 3 4 3 4 3 3 3 3 3
3 2 2 2 1 0 1 1 1 2 2 2 2 2 2 1 1 1 1 1 1 1 1 2 3 3 3 4 4 3 2 2 3 3 3 3 3 3 3 2 2 2 2
3 2 2 2 2 2 1 1 2 2 3 3 3 3 3 3 4 4 2 2 1 1 0 1 1 1 2 2 2 2 1 1 2 2 2 3 3 3 3 3 2 2 3
3 2 2 2 2 2 1 1 2 1 2 3 4 4 3 5 5 4 4 3 3 2 2 0 1 1 1 2 2 2 1 1 2 2 2 2 3 3 3 2 2 3 3
3 3 2 2 2 2 2 2 1 2 2 2 3 4 4 4 4 3 3 2 1 3 1 1 1 1 2 2 1 1 2 2 2 1 2 2 2 2 2 2 2 2 3
3 3 3 3 3 3 3 3 3 2 1 2 2 3 3 3 3 3 3 3 2 1 0 1 1 1 1 1 1 1 2 2 1 2 2 2 2 1 2 2 2 2 2
3 2 2 2 3 3 3 3 2 3 2 1 1 1 2 2 1 2 4 3 2 1 1 1 1 1 1 1 1 1 1 1 2 2 2 2 1 1 2 2 2 2 1
3 4 3 2 2 2 2 2 2 2 2 2 2 2 1 2 1 1 1 1 1 1 1 1 1 0 0 1 1 1 1 2 2 2 2 2 2 1 2 2 2 1 1
2 2 2 1 2 2 2 2 2 2 2 2 2 2 5 3 3 2 2 2 2 2 1 1 0 0 0 1 1 1 1 1 2 2 2 2 2 2 2 2 2 2 2
1 2 2 2 2 2 2 2 2 3 3 3 2 2 4 3 2 2 1 1 2 2 1 1 1 0 0 0 0 1 1 1 1 1 1 1 1 1 1 2 2 2 2
1 1 1 1 2 2 2 1 2 2 2 2 2 2 2 2 2 2 2 2 1 1 1 1 1 0 0 0 0 1 1 2 2 1 1 1 1 2 1 2 2 3 3
1 1 1 1 1 1 1 1 1 2 2 2 2 2 2 2 2 2 1 1 1 1 0 1 1 1 0 1 1 1 1 1 1 1 2 1 1 1 2 2 2 3 3
1 1 1 1 1 1 1 1 1 2 2 2 2 2 2 2 2 2 1 1 1 1 0 0 0 0 0 1 1 1 2 1 1 1 1 1 1 1 2 3 3 3 2
1 1 1 1 1 1 2 2 2 2 2 2 2 2 2 2 2 2 1 1 1 1 1 0 0 0 1 2 2 1 1 1 2 1 1 1 1 1 2 2 3 2 2
Wind_Direction
156 151 146 148 159 155 166 179 177 178 184 186 195 187 182 191 194 183 219 226 219 238 231 201 223 206 198 196 177 168 175 165 202 266 270 261 199 227 249 231 227 222 232
166 155 157 160 161 163 182 194 186 187 195 198 187 177 181 181 182 185 210 223 216 228 236 221 236 217 207 200 188 191 195 186 182 234 274 260 228 225 222 227 237 233 237
159 156 157 160 165 178 193 193 187 189 195 194 176 180 188 185 186 197 204 213 214 216 217 217 229 213 228 225 206 207 211 207 187 198 247 253 254 244 245 260 246 248 250
159 157 164 179 184 187 188 186 190 188 185 186 184 190 192 191 196 204 208 211 218 227 223 220 221 209 218 222 217 212 204 200 193 196 234 253 257 261 210 243 274 265 261
166 170 185 187 183 178 183 188 187 189 191 189 189 198 196 194 209 204 210 216 220 229 236 233 223 225 228 217 216 208 198 198 197 204 228 253 259 246 235 230 248 270 270
170 179 182 172 176 183 190 183 175 187 195 182 190 199 202 217 222 208 201 216 225 225 236 244 241 237 245 240 234 225 208 201 204 209 226 231 239 231 226 220 219 244 272
178 180 176 171 176 189 193 179 189 197 192 197 209 204 209 231 224 217 220 202 216 227 228 231 245 250 238 241 260 255 242 231 215 208 219 231 231 222 210 221 219 216 233
175 178 181 175 181 182 177 186 204 206 203 206 211 208 203 236 219 211 221 201 216 233 228 217 212 234 246 224 237 260 256 256 241 225 224 232 233 226 211 212 215 227 256
157 203 192 175 173 181 196 206 204 197 211 212 211 197 205 241 221 214 196 189 234 259 255 233 214 228 249 231 211 239 265 279 275 255 248 247 240 233 218 197 204 204 248
183 208 197 179 171 181 197 207 202 187 205 204 210 199 203 228 232 217 186 171 224 270 300 285 255 250 264 244 217 222 248 264 279 290 282 275 256 242 225 205 199 204 220
184 167 171 182 189 187 180 181 175 182 182 181 207 244 222 222 228 223 203 179 199 225 258 274 272 270 265 258 243 234 242 254 262 261 268 274 273 256 237 219 206 200 206
152 145 164 202 196 159 149 170 174 169 169 183 205 270 271 246 230 240 233 219 205 202 239 256 266 274 269 264 260 261 261 263 256 259 260 261 257 254 250 237 225 221 219
141 162 176 184 165 154 164 182 197 190 190 211 210 230 264 267 253 250 245 238 234 223 250 261 272 274 274 267 265 269 268 255 249 253 256 258 254 250 251 248 246 235 241
164 177 185 174 168 197 180 177 178 197 201 209 215 227 244 245 247 254 253 243 249 267 285 292 294 287 290 285 287 278 250 236 231 243 256 265 269 266 254 231 228 226 233
176 181 190 190 180 178 198 216 203 214 204 202 212 202 200 225 234 214 195 211 212 227 230 356 352 335 319 306 298 293 289 287 268 267 267 274 272 267 257 235 218 210 214
177 187 195 198 191 182 176 333 344 244 243 226 213 201 217 223 214 208 215 224 214 182 137 137 290 296 292 294 296 306 310 295 283 280 279 275 270 268 265 246 219 213 224
191 198 200 199 195 190 186 181 236 326 316 265 238 223 221 219 203 195 198 199 167 138 129 224 274 288 293 298 299 298 299 291 291 292 286 283 281 278 271 254 234 229 229
202 209 206 202 198 197 197 195 187 196 254 291 275 246 230 209 187 174 149 115 86 98 174 231 259 277 289 300 306 306 306 315 321 312 308 308 305 298 298 285 257 237 237
210 215 213 208 201 199 195 193 196 200 207 239 275 284 234 195 156 135 127 126 162 192 216 233 241 256 304 317 319 324 326 326 328 325 320 310 310 315 307 300 292 284 253
221 225 213 201 202 200 196 191 196 198 208 213 213 213 164 121 125 156 162 163 176 202 213 225 238 248 325 327 333 341 343 343 344 343 331 326 322 329 319 317 314 303 282
218 221 214 200 208 208 198 196 200 199 197 205 216 196 164 160 178 181 178 180 190 201 208 209 207 222 5 354 341 346 345 332 332 332 321 321 335 339 328 321 319 315 307
199 203 202 206 212 211 208 201 192 194 195 194 203 190 179 164 170 175 180 190 190 187 182 163 163 186 214 243 301 339 324 311 320 327 314 307 306 313 323 328 324 316 314
187 193 201 214 205 205 211 204 190 185 190 188 177 172 175 181 181 176 181 182 164 167 176 163 164 200 283 290 249 217 254 269 265 251 273 292 309 317 317 312 312 311 306
189 197 189 183 179 175 189 202 186 175 168 166 154 158 163 166 169 165 162 153 139 150 171 177 183 190 271 336 317 287 262 266 257 237 238 248 280 298 306 304 298 299 298
151 158 160 164 167 177 176 148 142 148 146 148 146 147 149 154 158 160 159 142 127 130 143 187 223 360 358 320 320 324 326 323 315 291 246 229 261 282 296 299 301 305 302
164 182 175 157 154 159 154 149 141 134 132 128 136 146 152 154 157 162 167 165 161 166 188 224 295 354 331 307 302 311 327 326 324 319 295 237 269 297 313 311 310 308 309